SCP
0 0 0 0 0 0 0 0 0 0 0 0 0 0 -0 0 0 0 0 -0 -0 -0 -0 -0 -0 -0 -0 0 0 0 0 0 0 0 0 0 0 0 0 0 0 0 0 0 0 0 0 0 0
0 0 0 0 0 0 0 0 0 0 0 0 0 0 0 0 0 -0 -0 -0 -0 -0 0 0 0 0 0 0 0 0 0 0 0 0 0 0 0 0 0 0 0 0 0 0 0 0 0 0 0
0 0 0 0 0 0 0 0 0 0 0 0 0 0 0 0 0 0 0 -0 -0 0 0 0 0 0 0 0 0 0 0 0 0 0 0 0 0 0 0 0 0 0 0 0 0 0 0 0 0
0 0 0 0 0 0 0 0 0 0 0 0 0 0 0 0 0 0 -0 -0 -0 0 0 0 0 0 0 0 0 0 0 0 0 0 0 0 0 0 0 0 0 0 0 0 0 0 0 0 0
0 0 0 0 0 0 0 0 0 0 0 0 0 0 0 0 0 -0 -0 0 0 0 0 0 0 0 0 0 0 0 0 0 0 0 0 0 0 0 0 0 0 0 0 0 0 0 0 0 0
0 0 0 0 0 0 0 0 0 0 0 0 0 0 0 0 0 0 0 0 0 0 0 0 0 0 0 0 0 0 0 0 0 0 0 0 0 0 0 0 0 0 0 0 0 0 0 0 0
0 0 0 0 0 0 0 0 0 0 0 0 0 0 0 0 0 0 0 0 0 0 0 0 0 0 0 0 0 0 0 0 0 0 0 0 0 0 0 0 0 0 0 0 0 0 0 0 0
0 0 0 0 0 0 0 0 0 0 0 0 0 0 0 -0 0 0 0 0 0 0 0 0 0 0 0 0 0 0 0 0 0 0 0 0 0 0 0 0 0 0 0 0 0 0 0 0 0
0 0 0 0 0 0 0 0 0 0 0 0 0 0 0 0 0 0 0 0 0 0 0 0 0 0 0 0 0 0 0 0 0 0 0 0 0 0 0 0 0 0 0 0 0 0 0 0 0
0 0 0 0 0 0 0 0 0 0 0 0 0 0 0 0 0 0 0 0 0 0 0 0 0 0 0 0 0 0 0 0 0 0 0 0 0 0 0 0 0 0 0 0 0 0 0 0 0
0 0 0 0 0 0 0 0 0 0 0 0 0 0 0 0 0 0 0 0 0 0 0 0 0 0 0 0 0 0 0 0 0 0 0 0 0 0 0 0 0 0 0 0 0 0 0 0 0
0 0 0 0 0 0 0 0 0 0 0 0 0 0 0 0 0 0 0 0 0 0 0 0 0 0 0 0 0 0 0 0 0 0 0 0 0 0 0 0 0 0 0 0 0 0 0 0 0
0 0 0 0 0 0 0 0 0 0 0 0 0 0 0 0 0 0 0 0 0 0 0 0 0 0 0 0 0 0 0 0 0 0 0 0 0 0 0 0 0 0 0 0 0 0 0 0 0
0 0 0 0 0 0 0 0 0 0 0 0 0 0 0 0 0 0 0 0 0 0 0 0 0 0 0 0 0 0 0 0 0 0 0 0 0 0 0 0 0 0 0 0 0 0 0 0 0
0 0 0 0 0 0 0 0 0 0 0 0 0 0 0 0 0 0 0 0 0 0 0 0 0 0 0 0 0 0 0 0 0 0 0 0 0 0 0 0 0 0 0 0 0 0 0 0 0
0 0 0 0 0 0 0 0 0 0 0 0 0 0 0 0 0 0 0 0 0 0 0 0 0 0 0 0 0 0 0 0 0 0 0 0 0 0 0 0 0 0 0 0 0 0 0 0 0
0 0 0 0 0 0 0 0 0 0 0 0 0 0 0 0 0 0 0 0 0 0 0 0 0 0 0 0 0 0 0 0 0 0 0 0 0 0 0 0 0 0 0 0 0 0 0 0 0
0 0 0 0 0 0 0 0 0 0 0 0 0 0 0 0 0 0 0 0 0 0 0 0 0 0 0 0 0 0 0 0 0 0 0 0 0 0 0 0 0 0 0 0 0 0 0 0 0
0 0 0 0 0 0 0 0 0 0 0 0 0 0 0 0 0 0 0 0 0 0 0 0 0 0 0 0 0 0 0 0 0 0 0 0 0 0 0 0 0 0 0 0 0 0 0 0 0
0 0 0 0 0 0 0 0 0 0 0 0 0 0 0 0 0 0 0 0 0 0 0 0 0 0 0 0 0 0 0 0 0 0 0 0 0 0 0 0 0 0 0 0 0 0 0 0 0
0 0 0 0 0 0 0 0 0 0 0 0 0 0 0 0 0 0 0 0 0 0 0 0 0 0 0 0 0 0 0 0 0 0 0 0 0 0 0 0 0 0 0 0 0 0 0 0 0
0 0 0 0 0 0 0 0 0 0 0 0 0 0 0 0 0 0 0 0 0 0 0 0 0 0 0 0 0 0 0 0 0 0 0 0 0 0 0 0 0 0 0 0 0 0 0 0 0
0 0 0 0 0 0 0 0 0 0 0 0 0 0 0 0 0 0 0 0 0 0 0 0 0 0 0 0 0 0 0 0 0 0 0 0 0 0 0 0 0 0 0 0 0 0 0 0 0
0 0 0 0 0 0 0 0 0 0 0 0 0 0 0 0 0 0 0 0 0 0 0 0 0 0 0 0 0 0 0 0 0 0 0 0 0 0 0 0 0 0 0 0 0 0 0 0 0
0 0 0 0 0 0 0 0 0 0 0 0 0 0 0 0 0 0 0 0 0 0 0 0 0 0 0 0 0 0 0 0 0 0 0 0 0 0 0 0 0 0 0 0 0 0 0 0 0
0 0 0 0 0 0 0 0 0 0 0 0 0 0 0 0 0 0 0 0 0 0 -0 -0 0 0 0 0 0 0 0 0 0 0 0 0 0 0 0 0 0 0 0 0 0 0 0 0 0
0 0 0 0 0 0 0 0 0 0 0 0 0 0 0 0 0 0 0 0 0 0 0 0 0 0 0 0 0 0 0 0 0 0 0 0 0 0 0 0 0 0 0 0 0 0 0 0 0
0 0 0 0 0 0 0 0 0 0 0 0 0 0 0 0 0 0 0 0 0 0 0 0 0 0 0 0 0 0 0 0 0 0 0 0 0 0 0 0 0 0 0 0 0 0 0 0 0
0 0 0 0 0 0 0 0 0 0 0 0 0 0 0 0 0 0 0 0 0 0 0 0 0 0 0 0 0 0 0 0 0 0 0 0 0 0 0 0 0 0 0 0 0 0 0 0 0
0 0 0 0 0 0 0 0 0 0 0 0 0 0 0 0 0 0 0 0 -0 -0 0 0 0 0 0 0 0 0 0 0 0 0 0 0 0 0 0 0 0 0 0 0 0 0 0 0 0
Wind_Speed_500mb
17 19 18 12 8 9 5 2 4 7 7 15 24 26 26 21 5 8 31 19 15 11 8 5 4 4 5 5 5 6 6 7 7 9 11 14 16 16 18 17 15 14 13 13 12 12 13 13 13
22 23 16 6 10 6 8 4 8 3 30 26 27 24 21 9 18 31 29 24 18 13 11 4 3 2 3 4 5 6 7 8 9 10 11 12 14 15 16 17 19 18 17 16 16 16 16 17 17
26 27 9 9 8 9 8 6 10 15 15 8 12 29 13 16 31 25 26 23 17 14 11 5 1 2 4 6 7 8 9 10 10 11 12 13 15 16 18 18 19 19 20 21 22 21 21 21 20
24 12 8 8 9 8 14 14 16 13 17 14 29 18 16 15 21 27 28 23 14 11 9 5 4 5 7 9 12 13 14 15 16 17 19 20 21 21 22 22 22 22 23 24 25 24 23 24 24
25 8 7 6 6 1 4 24 9 9 10 15 6 9 13 23 26 30 26 22 14 10 7 5 4 8 12 13 15 16 17 19 21 22 24 25 26 28 27 26 27 28 28 27 27 27 27 28 28
8 7 7 9 6 5 5 21 23 15 19 14 20 17 14 30 33 31 25 17 11 9 6 3 6 11 14 15 15 17 18 20 21 22 23 24 26 28 29 31 30 30 30 30 31 31 31 30 30
10 8 12 13 14 8 9 21 23 20 18 10 21 11 20 38 36 33 28 22 15 10 5 7 11 14 16 17 17 19 20 22 24 25 26 25 26 26 26 27 28 29 28 29 30 32 34 34 33
5 8 10 9 13 10 12 8 19 34 9 22 10 14 13 44 42 38 31 25 19 13 8 9 11 12 17 19 19 21 23 23 24 24 24 23 24 24 26 27 29 29 29 27 25 27 31 32 33
7 8 7 15 16 10 19 10 9 17 27 13 11 15 9 42 41 38 33 26 19 13 9 9 10 13 17 19 21 22 22 23 23 21 21 20 20 20 22 25 27 27 27 27 27 28 28 27 29
7 7 10 2 4 11 16 19 19 11 22 10 17 19 26 37 34 34 29 24 17 12 9 10 12 15 18 20 21 22 21 21 23 23 22 20 20 20 20 21 25 28 29 31 31 31 32 32 33
6 6 7 3 4 28 18 15 6 30 3 19 31 34 35 34 31 31 27 21 14 11 9 10 12 16 18 20 21 21 20 22 23 22 21 20 19 19 19 20 23 25 27 29 31 32 34 35 37
12 13 5 13 8 15 10 19 13 7 6 14 20 24 33 35 33 33 28 24 17 12 11 13 14 18 19 22 23 23 23 22 21 20 20 19 18 18 18 20 22 25 27 28 30 31 32 33 34
9 3 14 11 26 24 19 13 6 12 15 12 26 33 30 31 30 27 23 22 21 17 18 16 17 18 21 23 24 23 20 19 18 18 19 19 19 20 22 23 24 25 26 28 29 29 29 28 28
16 25 14 21 20 19 10 4 2 17 20 18 24 32 30 27 30 30 27 25 24 22 23 18 18 19 23 24 24 23 21 19 19 18 17 19 21 23 24 24 23 24 24 23 24 25 26 26 26
26 12 11 25 17 7 8 3 10 8 28 23 28 27 27 23 29 30 22 23 24 26 24 20 20 21 23 23 21 20 20 18 17 17 19 21 20 21 21 21 21 22 22 22 20 19 22 23 24
9 10 9 8 16 5 5 8 7 18 28 22 22 25 25 26 28 27 29 31 31 30 27 25 23 22 22 20 19 18 18 19 19 21 21 20 20 21 22 23 24 24 24 25 26 24 23 24 24
11 8 7 1 6 5 1 8 2 20 19 18 18 22 24 24 30 32 36 36 33 29 27 26 24 23 21 20 19 20 21 22 22 24 22 21 21 22 23 24 25 26 27 27 27 27 28 28 26
11 11 6 8 2 2 2 13 10 7 14 23 20 20 22 26 33 33 37 34 30 27 26 25 25 22 19 17 17 19 23 24 25 23 21 20 21 22 22 23 24 25 27 28 28 27 27 30 31
13 12 12 1 2 1 7 11 17 33 29 27 27 25 19 20 22 41 43 38 31 27 26 25 27 22 17 15 16 18 21 24 25 24 22 21 21 22 22 23 24 25 26 28 29 30 29 28 30
11 16 6 1 2 3 6 14 9 12 4 5 13 7 6 10 14 27 45 42 31 27 28 30 24 19 16 14 14 16 19 22 23 23 21 22 20 21 22 22 23 24 25 29 32 34 32 29 31
10 14 7 7 3 3 8 9 6 8 14 20 20 15 10 5 8 13 34 33 26 26 29 23 19 18 15 14 15 17 19 22 24 24 24 24 22 23 25 26 26 27 27 28 30 32 33 30 25
8 6 6 8 7 5 7 7 5 3 7 10 13 17 17 9 5 10 21 21 20 21 17 15 18 20 19 18 20 21 22 24 25 27 27 26 25 25 26 26 27 28 29 30 31 33 34 34 31
8 4 7 5 8 7 9 7 11 1 2 3 7 11 12 11 9 3 6 9 13 14 16 20 25 27 27 28 28 27 26 26 28 29 29 27 28 29 28 29 30 31 32 33 32 32 32 32 30
9 10 14 9 6 5 5 8 8 8 8 4 0 9 9 9 10 9 7 11 17 22 26 29 33 33 35 37 39 38 34 30 32 31 32 31 32 32 31 31 31 32 32 33 33 33 33 31 30
10 10 7 7 8 10 7 6 14 5 5 12 14 7 9 13 12 9 9 15 21 26 31 36 40 42 38 41 42 43 44 40 37 35 35 37 39 38 37 38 36 35 34 34 34 34 33 32 31
4 8 9 11 6 8 8 10 7 8 1 15 17 14 10 8 12 14 14 18 22 25 31 34 36 41 39 40 39 39 41 45 44 41 39 41 43 43 44 44 43 40 39 37 36 35 35 34 33
2 3 7 13 6 7 5 12 12 4 5 15 17 10 5 6 5 10 10 18 25 29 33 32 29 30 28 30 32 34 37 38 41 41 44 46 46 46 46 48 49 46 44 41 40 38 37 37 35
4 6 6 6 4 7 9 10 10 13 14 11 10 11 7 1 4 6 10 19 27 33 33 27 24 27 29 28 26 28 31 33 33 36 41 45 46 46 47 47 49 50 50 47 45 42 40 40 38
3 0 6 6 7 8 3 11 12 19 17 17 17 14 5 3 3 3 12 20 30 37 33 29 24 24 22 22 25 21 22 26 30 34 38 42 46 46 47 47 48 50 52 52 52 49 45 44 42
5 9 9 8 8 2 6 12 7 17 28 20 10 11 8 4 2 6 19 29 38 42 32 27 24 23 21 19 21 23 26 28 32 36 40 43 46 48 50 50 52 53 53 54 56 54 50 48 46
Wind_Direction_500mb
175 176 172 149 73 64 272 219 128 144 72 67 91 114 108 65 81 161 145 165 173 194 203 166 104 73 50 29 14 1 345 330 319 313 313 315 315 317 323 325 329 328 330 335 335 325 312 305 303
173 169 157 116 93 90 267 296 124 211 139 106 74 83 56 87 108 129 149 159 187 200 184 159 84 45 25 11 359 347 338 329 323 316 312 309 314 314 314 317 313 314 310 309 316 315 311 308 302
172 169 159 108 116 174 192 168 168 123 148 118 102 77 81 106 130 145 159 171 198 187 180 180 229 298 299 301 299 301 305 309 312 312 310 309 309 311 310 309 310 306 300 300 303 307 306 304 305
167 156 88 99 188 227 168 174 155 131 77 85 114 67 84 148 147 176 164 179 191 186 181 203 249 283 292 293 294 293 293 294 293 292 291 291 293 294 293 295 295 291 294 297 299 299 299 300 301
160 136 73 115 206 299 118 159 154 104 88 94 83 118 93 144 165 173 178 182 207 211 204 227 288 306 307 304 301 297 294 292 290 288 286 285 283 283 283 282 280 283 286 289 290 291 293 296 297
131 133 87 159 160 64 116 149 123 96 108 105 96 103 137 155 171 177 191 200 210 213 218 270 312 315 312 314 313 309 309 307 305 301 295 293 290 286 282 280 283 285 287 286 285 286 288 289 291
137 103 177 154 151 133 186 148 134 120 111 77 123 100 150 170 185 186 193 211 232 237 252 299 310 313 316 325 318 316 313 312 305 301 300 297 293 291 288 285 285 286 284 282 282 282 280 279 279
184 97 118 186 170 194 174 105 137 131 100 126 143 165 181 180 183 194 203 212 214 224 247 286 305 318 322 322 324 320 318 312 309 309 309 304 295 287 284 284 285 285 285 284 281 279 278 277 273
170 77 172 184 159 187 158 123 117 122 131 131 144 157 158 173 180 191 197 205 217 229 258 289 310 324 323 324 324 323 320 319 315 312 313 311 305 296 287 282 280 282 283 285 286 286 286 286 280
109 114 200 290 186 165 140 117 131 127 124 94 127 143 151 169 182 194 203 212 220 238 268 301 318 322 326 330 329 324 320 313 311 318 321 318 316 311 305 295 288 288 288 287 287 287 285 283 280
101 152 158 359 324 150 125 115 103 137 214 189 178 162 164 175 186 199 207 221 226 249 282 302 311 321 330 332 327 324 320 316 319 324 323 322 318 312 304 294 287 287 288 289 288 286 285 285 284
98 42 63 349 77 103 93 124 99 193 187 186 191 186 184 192 199 199 209 221 233 258 279 296 314 327 332 333 332 331 330 330 323 319 320 322 320 317 308 301 298 299 298 294 293 292 292 291 290
84 115 60 48 78 84 120 82 122 176 159 158 176 184 195 203 202 205 217 219 235 258 288 298 312 326 333 336 334 335 338 336 326 323 320 322 325 320 318 317 318 317 312 308 303 300 298 298 295
119 98 78 50 47 61 100 64 35 204 188 179 185 192 197 204 201 206 215 233 248 277 287 285 306 327 332 334 332 335 334 335 329 330 324 325 325 325 327 328 327 325 325 324 319 315 312 312 313
117 78 44 25 6 48 84 344 239 234 194 184 192 200 203 205 211 227 245 250 269 275 276 285 306 322 327 329 328 327 323 325 328 329 325 327 331 335 336 336 338 339 340 341 339 335 330 328 324
69 59 96 322 5 346 77 256 309 191 185 195 198 208 215 217 226 232 234 245 265 275 281 288 301 318 319 319 318 314 315 317 324 329 331 335 336 336 336 337 338 337 334 336 339 340 336 334 330
11 139 102 357 51 311 86 237 304 198 205 227 235 235 231 226 227 234 244 258 272 281 288 291 294 306 313 315 316 310 314 317 328 334 333 330 330 333 336 339 339 339 339 339 340 340 337 334 330
160 109 85 151 224 72 287 268 276 217 240 251 259 255 250 246 239 242 246 252 262 272 284 290 292 298 297 306 312 312 315 324 326 323 320 321 326 330 333 338 339 337 335 334 333 337 335 333 334
129 113 116 220 244 92 243 275 294 292 270 264 259 261 263 262 255 239 238 241 252 268 285 291 287 285 297 311 321 321 316 317 318 315 316 322 326 330 335 336 336 334 331 330 331 332 338 337 336
92 114 79 45 181 93 3 302 297 349 19 268 266 268 250 252 258 237 227 230 246 266 282 293 280 283 294 313 322 322 318 311 311 317 315 320 324 328 328 328 329 329 331 334 335 336 337 341 339
35 114 152 140 79 53 350 336 1 23 75 79 80 81 67 12 304 237 218 226 248 276 290 279 268 279 291 302 315 316 315 314 315 318 318 321 325 323 323 326 329 333 334 332 331 333 332 335 339
91 330 95 85 86 187 43 257 297 62 48 53 51 59 51 21 345 206 217 235 272 292 286 276 282 287 292 292 295 303 309 313 315 314 316 318 317 314 317 321 324 327 329 331 332 332 331 331 331
150 75 76 73 86 68 353 71 270 243 22 29 24 36 46 32 35 67 228 265 290 300 301 297 295 295 290 286 285 290 297 304 308 307 305 306 308 310 315 318 320 324 328 330 330 328 325 323 322
136 70 44 51 66 30 328 121 263 196 195 191 226 46 60 46 45 37 1 326 322 317 316 310 304 299 294 289 285 284 287 292 295 301 304 303 301 303 306 308 311 314 319 322 323 323 323 320 316
71 63 13 360 6 219 350 46 243 254 228 185 173 103 81 67 61 40 4 340 330 322 315 307 299 293 295 293 292 290 285 283 287 293 300 303 301 300 299 298 300 303 306 311 314 316 316 314 311
78 129 148 202 194 258 9 236 245 229 131 141 131 123 102 68 60 40 28 10 356 342 330 317 311 303 291 286 293 301 292 284 281 287 295 301 303 299 293 292 292 294 295 300 304 308 310 311 310
173 60 151 106 32 43 248 285 309 156 128 138 140 145 144 113 28 20 17 1 354 341 340 331 327 332 320 299 287 292 297 293 283 284 289 298 304 303 295 290 288 288 287 290 294 300 304 304 305
82 164 66 359 130 260 292 276 231 201 191 182 188 189 194 290 0 27 1 351 351 345 334 327 328 335 333 327 301 290 295 300 293 287 292 301 305 304 300 295 290 286 283 284 286 289 293 296 296
57 39 61 114 143 170 299 264 212 196 182 188 201 196 209 300 49 13 356 342 336 341 331 332 322 325 329 336 339 325 317 311 305 301 305 308 308 306 301 298 292 287 282 279 279 280 281 285 288
209 207 156 129 216 161 146 274 294 188 183 175 194 158 137 68 105 10 343 335 334 334 329 327 333 327 331 328 332 334 327 319 311 309 307 306 305 303 301 297 292 290 286 281 277 276 277 280 282
Wind_Speed_850mb
17 19 18 12 8 9 5 2 4 7 7 15 24 26 26 21 5 8 31 19 15 11 8 5 4 4 5 5 5 6 6 7 7 9 11 14 16 16 18 17 15 14 13 13 12 12 13 13 13
22 23 16 6 10 6 8 4 8 3 30 26 27 24 21 9 18 31 29 24 18 13 11 4 3 2 3 4 5 6 7 8 9 10 11 12 14 15 16 17 19 18 17 16 16 16 16 17 17
26 27 9 9 8 9 8 6 10 15 15 8 12 29 13 16 31 25 26 23 17 14 11 5 1 2 4 6 7 8 9 10 10 11 12 13 15 16 18 18 19 19 20 21 22 21 21 21 20
24 12 8 8 9 8 14 14 16 13 17 14 29 18 16 15 21 27 28 23 14 11 9 5 4 5 7 9 12 13 14 15 16 17 19 20 21 21 22 22 22 22 23 24 25 24 23 24 24
25 8 7 6 6 1 4 24 9 9 10 15 6 9 13 23 26 30 26 22 14 10 7 5 4 8 12 13 15 16 17 19 21 22 24 25 26 28 27 26 27 28 28 27 27 27 27 28 28
8 7 7 9 6 5 5 21 23 15 19 14 20 17 14 30 33 31 25 17 11 9 6 3 6 11 14 15 15 17 18 20 21 22 23 24 26 28 29 31 30 30 30 30 31 31 31 30 30
10 8 12 13 14 8 9 21 23 20 18 10 21 11 20 38 36 33 28 22 15 10 5 7 11 14 16 17 17 19 20 22 24 25 26 25 26 26 26 27 28 29 28 29 30 32 34 34 33
5 8 10 9 13 10 12 8 19 34 9 22 10 14 13 44 42 38 31 25 19 13 8 9 11 12 17 19 19 21 23 23 24 24 24 23 24 24 26 27 29 29 29 27 25 27 31 32 33
7 8 7 15 16 10 19 10 9 17 27 13 11 15 9 42 41 38 33 26 19 13 9 9 10 13 17 19 21 22 22 23 23 21 21 20 20 20 22 25 27 27 27 27 27 28 28 27 29
7 7 10 2 4 11 16 19 19 11 22 10 17 19 26 37 34 34 29 24 17 12 9 10 12 15 18 20 21 22 21 21 23 23 22 20 20 20 20 21 25 28 29 31 31 31 32 32 33
6 6 7 3 4 28 18 15 6 30 3 19 31 34 35 34 31 31 27 21 14 11 9 10 12 16 18 20 21 21 20 22 23 22 21 20 19 19 19 20 23 25 27 29 31 32 34 35 37
12 13 5 13 8 15 10 19 13 7 6 14 20 24 33 35 33 33 28 24 17 12 11 13 14 18 19 22 23 23 23 22 21 20 20 19 18 18 18 20 22 25 27 28 30 31 32 33 34
9 3 14 11 26 24 19 13 6 12 15 12 26 33 30 31 30 27 23 22 21 17 18 16 17 18 21 23 24 23 20 19 18 18 19 19 19 20 22 23 24 25 26 28 29 29 29 28 28
16 25 14 21 20 19 10 4 2 17 20 18 24 32 30 27 30 30 27 25 24 22 23 18 18 19 23 24 24 23 21 19 19 18 17 19 21 23 24 24 23 24 24 23 24 25 26 26 26
26 12 11 25 17 7 8 3 10 8 28 23 28 27 27 23 29 30 22 23 24 26 24 20 20 21 23 23 21 20 20 18 17 17 19 21 20 21 21 21 21 22 22 22 20 19 22 23 24
9 10 9 8 16 5 5 8 7 18 28 22 22 25 25 26 28 27 29 31 31 30 27 25 23 22 22 20 19 18 18 19 19 21 21 20 20 21 22 23 24 24 24 25 26 24 23 24 24
11 8 7 1 6 5 1 8 2 20 19 18 18 22 24 24 30 32 36 36 33 29 27 26 24 23 21 20 19 20 21 22 22 24 22 21 21 22 23 24 25 26 27 27 27 27 28 28 26
11 11 6 8 2 2 2 13 10 7 14 23 20 20 22 26 33 33 37 34 30 27 26 25 25 22 19 17 17 19 23 24 25 23 21 20 21 22 22 23 24 25 27 28 28 27 27 30 31
13 12 12 1 2 1 7 11 17 33 29 27 27 25 19 20 22 41 43 38 31 27 26 25 27 22 17 15 16 18 21 24 25 24 22 21 21 22 22 23 24 25 26 28 29 30 29 28 30
11 16 6 1 2 3 6 14 9 12 4 5 13 7 6 10 14 27 45 42 31 27 28 30 24 19 16 14 14 16 19 22 23 23 21 22 20 21 22 22 23 24 25 29 32 34 32 29 31
10 14 7 7 3 3 8 9 6 8 14 20 20 15 10 5 8 13 34 33 26 26 29 23 19 18 15 14 15 17 19 22 24 24 24 24 22 23 25 26 26 27 27 28 30 32 33 30 25
8 6 6 8 7 5 7 7 5 3 7 10 13 17 17 9 5 10 21 21 20 21 17 15 18 20 19 18 20 21 22 24 25 27 27 26 25 25 26 26 27 28 29 30 31 33 34 34 31
8 4 7 5 8 7 9 7 11 1 2 3 7 11 12 11 9 3 6 9 13 14 16 20 25 27 27 28 28 27 26 26 28 29 29 27 28 29 28 29 30 31 32 33 32 32 32 32 30
9 10 14 9 6 5 5 8 8 8 8 4 0 9 9 9 10 9 7 11 17 22 26 29 33 33 35 37 39 38 34 30 32 31 32 31 32 32 31 31 31 32 32 33 33 33 33 31 30
10 10 7 7 8 10 7 6 14 5 5 12 14 7 9 13 12 9 9 15 21 26 31 36 40 42 38 41 42 43 44 40 37 35 35 37 39 38 37 38 36 35 34 34 34 34 33 32 31
4 8 9 11 6 8 8 10 7 8 1 15 17 14 10 8 12 14 14 18 22 25 31 34 36 41 39 40 39 39 41 45 44 41 39 41 43 43 44 44 43 40 39 37 36 35 35 34 33
2 3 7 13 6 7 5 12 12 4 5 15 17 10 5 6 5 10 10 18 25 29 33 32 29 30 28 30 32 34 37 38 41 41 44 46 46 46 46 48 49 46 44 41 40 38 37 37 35
4 6 6 6 4 7 9 10 10 13 14 11 10 11 7 1 4 6 10 19 27 33 33 27 24 27 29 28 26 28 31 33 33 36 41 45 46 46 47 47 49 50 50 47 45 42 40 40 38
3 0 6 6 7 8 3 11 12 19 17 17 17 14 5 3 3 3 12 20 30 37 33 29 24 24 22 22 25 21 22 26 30 34 38 42 46 46 47 47 48 50 52 52 52 49 45 44 42
5 9 9 8 8 2 6 12 7 17 28 20 10 11 8 4 2 6 19 29 38 42 32 27 24 23 21 19 21 23 26 28 32 36 40 43 46 48 50 50 52 53 53 54 56 54 50 48 46
Wind_Direction_850mb
175 176 172 149 73 64 272 219 128 144 72 67 91 114 108 65 81 161 145 165 173 194 203 166 104 73 50 29 14 1 345 330 319 313 313 315 315 317 323 325 329 328 330 335 335 325 312 305 303
173 169 157 116 93 90 267 296 124 211 139 106 74 83 56 87 108 129 149 159 187 200 184 159 84 45 25 11 359 347 338 329 323 316 312 309 314 314 314 317 313 314 310 309 316 315 311 308 302
172 169 159 108 116 174 192 168 168 123 148 118 102 77 81 106 130 145 159 171 198 187 180 180 229 298 299 301 299 301 305 309 312 312 310 309 309 311 310 309 310 306 300 300 303 307 306 304 305
167 156 88 99 188 227 168 174 155 131 77 85 114 67 84 148 147 176 164 179 191 186 181 203 249 283 292 293 294 293 293 294 293 292 291 291 293 294 293 295 295 291 294 297 299 299 299 300 301
160 136 73 115 206 299 118 159 154 104 88 94 83 118 93 144 165 173 178 182 207 211 204 227 288 306 307 304 301 297 294 292 290 288 286 285 283 283 283 282 280 283 286 289 290 291 293 296 297
131 133 87 159 160 64 116 149 123 96 108 105 96 103 137 155 171 177 191 200 210 213 218 270 312 315 312 314 313 309 309 307 305 301 295 293 290 286 282 280 283 285 287 286 285 286 288 289 291
137 103 177 154 151 133 186 148 134 120 111 77 123 100 150 170 185 186 193 211 232 237 252 299 310 313 316 325 318 316 313 312 305 301 300 297 293 291 288 285 285 286 284 282 282 282 280 279 279
184 97 118 186 170 194 174 105 137 131 100 126 143 165 181 180 183 194 203 212 214 224 247 286 305 318 322 322 324 320 318 312 309 309 309 304 295 287 284 284 285 285 285 284 281 279 278 277 273
170 77 172 184 159 187 158 123 117 122 131 131 144 157 158 173 180 191 197 205 217 229 258 289 310 324 323 324 324 323 320 319 315 312 313 311 305 296 287 282 280 282 283 285 286 286 286 286 280
109 114 200 290 186 165 140 117 131 127 124 94 127 143 151 169 182 194 203 212 220 238 268 301 318 322 326 330 329 324 320 313 311 318 321 318 316 311 305 295 288 288 288 287 287 287 285 283 280
101 152 158 359 324 150 125 115 103 137 214 189 178 162 164 175 186 199 207 221 226 249 282 302 311 321 330 332 327 324 320 316 319 324 323 322 318 312 304 294 287 287 288 289 288 286 285 285 284
98 42 63 349 77 103 93 124 99 193 187 186 191 186 184 192 199 199 209 221 233 258 279 296 314 327 332 333 332 331 330 330 323 319 320 322 320 317 308 301 298 299 298 294 293 292 292 291 290
84 115 60 48 78 84 120 82 122 176 159 158 176 184 195 203 202 205 217 219 235 258 288 298 312 326 333 336 334 335 338 336 326 323 320 322 325 320 318 317 318 317 312 308 303 300 298 298 295
119 98 78 50 47 61 100 64 35 204 188 179 185 192 197 204 201 206 215 233 248 277 287 285 306 327 332 334 332 335 334 335 329 330 324 325 325 325 327 328 327 325 325 324 319 315 312 312 313
117 78 44 25 6 48 84 344 239 234 194 184 192 200 203 205 211 227 245 250 269 275 276 285 306 322 327 329 328 327 323 325 328 329 325 327 331 335 336 336 338 339 340 341 339 335 330 328 324
69 59 96 322 5 346 77 256 309 191 185 195 198 208 215 217 226 232 234 245 265 275 281 288 301 318 319 319 318 314 315 317 324 329 331 335 336 336 336 337 338 337 334 336 339 340 336 334 330
11 139 102 357 51 311 86 237 304 198 205 227 235 235 231 226 227 234 244 258 272 281 288 291 294 306 313 315 316 310 314 317 328 334 333 330 330 333 336 339 339 339 339 339 340 340 337 334 330
160 109 85 151 224 72 287 268 276 217 240 251 259 255 250 246 239 242 246 252 262 272 284 290 292 298 297 306 312 312 315 324 326 323 320 321 326 330 333 338 339 337 335 334 333 337 335 333 334
129 113 116 220 244 92 243 275 294 292 270 264 259 261 263 262 255 239 238 241 252 268 285 291 287 285 297 311 321 321 316 317 318 315 316 322 326 330 335 336 336 334 331 330 331 332 338 337 336
92 114 79 45 181 93 3 302 297 349 19 268 266 268 250 252 258 237 227 230 246 266 282 293 280 283 294 313 322 322 318 311 311 317 315 320 324 328 328 328 329 329 331 334 335 336 337 341 339
35 114 152 140 79 53 350 336 1 23 75 79 80 81 67 12 304 237 218 226 248 276 290 279 268 279 291 302 315 316 315 314 315 318 318 321 325 323 323 326 329 333 334 332 331 333 332 335 339
91 330 95 85 86 187 43 257 297 62 48 53 51 59 51 21 345 206 217 235 272 292 286 276 282 287 292 292 295 303 309 313 315 314 316 318 317 314 317 321 324 327 329 331 332 332 331 331 331
150 75 76 73 86 68 353 71 270 243 22 29 24 36 46 32 35 67 228 265 290 300 301 297 295 295 290 286 285 290 297 304 308 307 305 306 308 310 315 318 320 324 328 330 330 328 325 323 322
136 70 44 51 66 30 328 121 263 196 195 191 226 46 60 46 45 37 1 326 322 317 316 310 304 299 294 289 285 284 287 292 295 301 304 303 301 303 306 308 311 314 319 322 323 323 323 320 316
71 63 13 360 6 219 350 46 243 254 228 185 173 103 81 67 61 40 4 340 330 322 315 307 299 293 295 293 292 290 285 283 287 293 300 303 301 300 299 298 300 303 306 311 314 316 316 314 311
78 129 148 202 194 258 9 236 245 229 131 141 131 123 102 68 60 40 28 10 356 342 330 317 311 303 291 286 293 301 292 284 281 287 295 301 303 299 293 292 292 294 295 300 304 308 310 311 310
173 60 151 106 32 43 248 285 309 156 128 138 140 145 144 113 28 20 17 1 354 341 340 331 327 332 320 299 287 292 297 293 283 284 289 298 304 303 295 290 288 288 287 290 294 300 304 304 305
82 164 66 359 130 260 292 276 231 201 191 182 188 189 194 290 0 27 1 351 351 345 334 327 328 335 333 327 301 290 295 300 293 287 292 301 305 304 300 295 290 286 283 284 286 289 293 296 296
57 39 61 114 143 170 299 264 212 196 182 188 201 196 209 300 49 13 356 342 336 341 331 332 322 325 329 336 339 325 317 311 305 301 305 308 308 306 301 298 292 287 282 279 279 280 281 285 288
209 207 156 129 216 161 146 274 294 188 183 175 194 158 137 68 105 10 343 335 334 334 329 327 333 327 331 328 332 334 327 319 311 309 307 306 305 303 301 297 292 290 286 281 277 276 277 280 282